Date,TemperatureHighF,TemperatureAvgF,TemperatureLowF,DewpointHighF,DewpointAvgF,DewpointLowF,HumidityHigh,HumidityAvg,HumidityLow,PressureMaxIn,PressureMinIn,WindSpeedMaxMPH,WindSpeedAvgMPH,GustSpeedMaxMPH,PrecipitationSumIn
2013-1-2,30.7,28.5,23.6,18.1,15.6,12.7,65,58,51,30.10,29.93,9,6,21,0.00
2013-1-3,29.9,21.8,14.0,20.1,8.5,2.4,67,56,40,30.17,30.05,9,5,22,0.00
2013-1-4,39.4,35.4,29.1,30.2,25.3,20.2,74,66,53,30.05,29.89,11,6,26,0.00
2013-1-5,43.1,35.4,24.0,27.4,24.6,21.0,89,65,48,30.30,29.92,10,5,24,0.00
2013-1-6,42.6,34.8,24.2,37.0,31.3,21.2,93,87,79,30.25,29.98,7,2,17,0.05
2013-1-7,42.7,37.4,26.6,34.0,30.1,24.8,95,75,56,30.34,30.00,7,4,14,0.00
2013-1-9,49.9,45.3,28.8,45.6,40.5,27.3,95,84,74,30.43,30.06,9,4,26,0.00
2013-1-10,46.5,43.0,36.9,39.1,28.8,25.5,80,58,45,30.54,30.13,11,6,22,0.00
2013-1-11,43.6,37.2,27.3,39.3,31.3,24.1,94,80,64,30.54,30.24,4,1,10,0.20
2013-1-12,46.0,43.0,40.2,44.6,41.6,38.6,96,95,93,30.24,30.13,3,1,7,0.06
2013-1-13,53.2,48.1,43.8,52.4,46.9,42.7,97,96,92,30.20,30.07,4,1,11,0.03
2013-1-14,55.4,51.5,44.8,53.9,47.7,34.4,97,88,59,30.26,29.98,8,3,20,0.00
2013-1-15,44.6,39.3,35.8,37.7,35.0,31.6,93,85,70,30.32,30.21,6,2,12,0.21
2013-1-16,41.4,39.0,36.8,40.1,37.2,32.6,96,93,78,30.25,29.73,7,2,12,0.64
2013-1-17,43.2,39.9,35.8,38.0,32.0,24.8,92,74,61,30.10,29.89,9,4,18,0.00
2013-1-18,35.6,24.6,11.0,27.8,10.5,-0.8,93,58,32,30.52,30.02,10,5,21,0.00
2013-1-19,48.9,41.9,11.0,44.9,33.3,6.3,87,72,65,30.47,29.99,9,5,26,0.02
2013-1-20,52.4,46.8,32.3,45.9,36.2,14.9,88,67,41,29.99,29.66,10,6,25,0.00
2013-1-21,32.3,29.2,25.8,28.9,17.0,9.5,93,63,43,30.14,29.79,8,3,20,0.00
2013-1-22,29.4,23.9,17.2,27.6,10.2,-3.0,93,59,33,30.11,29.76,11,6,24,0.01
2013-1-23,18.4,15.1,12.8,4.0,-0.8,-5.0,59,49,43,30.20,30.09,10,7,0,0.00
2013-1-24,20.1,18.1,15.0,-0.4,-2.1,-3.8,45,40,35,30.26,30.11,12,9,25,0.00
2013-1-25,24.0,16.7,13.8,6.7,-0.4,-5.1,53,46,41,30.35,30.22,10,7,26,0.00
2013-1-26,24.7,24.7,24.7,8.7,8.7,8.7,50,50,50,30.09,30.09,5,5,5,0.00
2013-1-27,30.3,28.2,26.0,8.4,7.0,5.1,45,40,34,30.50,30.39,6,4,14,0.00
2013-1-28,35.9,27.3,13.8,32.5,19.1,6.2,95,73,43,30.50,30.01,5,1,10,0.08
2013-1-29,38.2,34.7,32.8,35.2,32.9,31.3,95,93,88,30.18,30.00,4,2,8,0.08
2013-1-30,55.5,52.6,44.3,53.6,50.9,42.7,96,94,90,30.01,29.59,7,5,18,0.01
2013-1-31,56.9,47.3,34.3,55.4,38.3,13.6,95,72,42,29.67,29.14,13,9,37,0.39
2013-2-1,34.6,32.0,30.0,22.4,15.3,11.1,72,50,41,29.85,29.67,12,8,28,0.00
2013-2-2,33.0,31.6,29.8,28.2,22.2,17.0,90,69,57,30.16,30.08,6,4,16,0.00
2013-2-3,33.6,27.7,19.7,27.1,22.5,16.8,90,81,61,30.08,29.73,8,4,17,0.03
2013-2-4,30.2,27.4,26.5,23.0,17.8,13.9,85,68,51,29.85,29.75,9,6,19,0.00
2013-2-5,30.1,27.5,25.3,28.1,22.9,14.0,92,83,58,30.05,29.93,3,2,18,0.00
2013-2-6,38.7,33.6,29.9,31.8,25.7,10.0,94,75,42,30.31,29.92,9,3,17,0.05
2013-2-7,30.0,26.8,24.6,12.7,9.6,7.9,57,48,41,30.50,30.31,7,4,0,0.00
2013-2-8,34.0,33.7,33.5,32.5,32.0,31.7,94,93,93,30.12,29.97,6,5,14,0.16
2013-2-11,44.4,43.6,43.0,43.1,42.2,41.4,95,95,94,29.91,29.85,5,4,13,0.76
2013-2-12,41.8,38.1,35.2,34.0,30.4,27.8,86,74,69,29.93,29.77,8,4,18,0.01
2013-2-13,40.6,34.5,28.4,29.6,26.0,24.1,88,71,55,29.92,29.68,7,3,13,0.00
2013-2-14,42.5,33.7,22.5,31.7,27.6,20.5,94,80,49,30.06,29.70,7,2,13,0.18
2013-2-15,48.0,33.8,19.8,39.8,30.2,17.9,95,87,68,30.09,29.98,5,1,11,0.01
2013-2-16,37.9,32.1,26.2,34.1,30.2,24.7,96,93,79,29.98,29.64,7,3,15,0.13
2013-2-17,34.6,25.6,19.4,31.9,17.6,5.4,93,74,43,29.72,29.36,15,11,32,0.00
2013-2-18,31.5,25.4,18.4,13.6,7.4,4.8,59,47,33,30.23,29.72,13,10,29,0.00
2013-2-19,47.1,39.3,23.4,45.6,32.5,13.9,95,77,48,30.23,29.63,7,3,19,0.88
2013-2-20,44.5,38.1,34.0,42.9,32.3,20.5,95,80,55,29.73,29.60,11,7,23,0.01
2013-2-25,36.1,36.0,35.6,32.5,32.1,31.6,88,86,85,30.10,30.09,5,4,9,0.09
2013-2-26,44.6,43.1,41.6,28.1,26.4,23.5,58,51,46,30.36,30.31,4,3,10,0.00
2013-3-1,40.7,39.7,38.5,36.7,35.7,34.7,90,86,79,29.62,29.60,7,5,13,0.00
2013-3-4,38.4,35.0,32.0,25.7,24.5,23.3,72,65,58,29.67,29.63,9,7,18,0.00
2013-3-18,37.8,34.2,30.3,27.0,21.5,15.2,76,60,48,30.46,30.24,5,3,11,0.00
2013-3-19,45.9,38.5,33.6,44.5,36.0,26.7,95,91,72,30.24,29.51,10,5,21,0.90
2013-3-20,40.6,35.0,27.6,31.5,25.0,20.5,88,68,50,29.86,29.69,11,6,25,0.90
2013-3-21,42.4,32.9,24.4,29.9,26.8,22.7,94,80,53,29.86,29.59,8,3,18,0.00
2013-3-22,39.6,34.3,28.8,29.9,25.6,19.0,95,72,47,29.78,29.62,9,6,20,0.27
2013-3-23,44.0,38.0,33.1,26.4,23.5,19.0,73,56,38,29.82,29.68,11,8,24,0.27
2013-3-24,48.0,37.7,29.8,28.6,25.3,22.8,89,62,40,29.88,29.76,8,4,17,0.00
2013-3-25,46.0,37.2,28.5,35.8,30.8,26.1,93,78,61,29.78,29.46,8,4,21,0.05
2013-3-26,47.0,40.2,34.5,34.0,31.2,27.1,90,71,49,29.81,29.46,8,5,19,0.01
2013-3-27,50.6,40.5,26.1,34.1,28.9,23.6,91,65,41,29.87,29.77,8,3,19,0.01
2013-3-28,41.1,38.8,33.4,36.7,34.3,29.7,90,84,74,29.93,29.86,6,4,14,0.00
2013-3-30,53.6,48.1,40.7,36.2,32.0,28.3,83,55,39,30.13,30.05,7,4,15,0.00
2013-3-31,56.1,44.8,28.9,43.4,36.4,26.6,94,74,43,30.16,29.76,7,3,16,0.12
2013-4-1,54.8,47.0,38.5,46.5,40.6,17.1,95,80,40,29.82,29.61,9,6,21,0.07
2013-4-2,41.9,37.4,32.7,22.0,17.5,12.8,54,44,33,30.01,29.82,12,7,28,0.07
2013-4-3,44.7,38.3,32.9,26.6,17.8,13.9,51,43,34,30.20,29.99,11,8,24,0.00
2013-4-4,46.1,38.6,32.7,34.6,23.6,16.1,81,56,37,30.35,30.14,8,5,19,0.00
2013-4-5,53.4,44.1,40.0,43.1,37.1,27.8,92,77,50,30.14,29.67,7,2,15,0.11
2013-4-6,46.3,40.0,30.3,30.0,19.8,8.0,78,46,21,30.38,29.87,9,5,20,0.11
2013-4-7,49.4,39.3,22.3,42.5,32.7,20.0,94,78,51,30.37,30.11,7,3,16,0.00
2013-4-8,52.1,47.8,45.9,45.7,44.2,42.6,91,87,78,30.11,30.02,6,4,15,0.00
2013-4-9,67.3,59.5,49.7,52.0,49.9,47.4,95,72,54,29.97,29.89,11,7,22,0.01
2013-4-22,51.6,45.5,41.8,38.3,34.3,29.2,77,66,48,30.73,30.56,6,5,14,0.00
2013-4-23,46.6,44.3,41.7,44.9,41.9,35.5,94,91,77,30.56,30.00,9,5,22,1.10
2013-4-24,58.3,47.1,44.0,47.4,43.6,42.1,94,88,65,29.99,29.85,12,8,29,0.03
2013-5-2,68.3,57.5,40.7,49.0,44.2,38.1,92,64,40,30.47,30.38,4,2,11,0.00
2013-5-3,53.4,45.1,36.1,44.8,40.5,34.3,95,84,69,30.49,30.38,8,2,16,0.00
2013-5-4,54.2,43.7,36.3,44.3,40.2,34.5,95,88,66,30.37,30.33,5,1,12,0.00
2013-5-6,48.6,48.3,48.1,46.2,46.1,46.1,93,92,91,30.31,30.30,1,1,8,0.00
2013-5-9,65.1,58.3,53.0,60.3,55.4,51.5,96,90,83,29.99,29.91,4,2,9,0.02
2013-5-10,74.7,61.0,53.4,59.1,54.7,51.8,97,82,48,30.01,29.93,6,3,13,0.02
2013-5-11,63.8,58.9,55.1,60.4,56.9,53.8,96,93,80,29.99,29.75,6,3,22,0.31
2013-5-12,64.9,58.6,52.0,59.9,53.4,39.1,97,84,53,29.84,29.65,8,3,19,0.46
2013-5-13,56.4,52.3,42.4,42.1,36.8,30.1,72,56,43,30.03,29.85,9,4,22,0.46
2013-5-14,55.1,49.9,45.0,43.3,34.7,30.5,67,56,42,30.06,30.01,7,4,15,0.00
2013-5-21,76.5,65.3,55.8,69.0,61.0,54.0,94,86,75,29.98,29.90,7,2,16,0.00
2013-5-22,72.1,59.9,52.9,65.0,57.5,51.0,96,92,77,30.00,29.93,7,2,13,0.01
2013-5-23,70.7,64.4,59.6,66.0,62.0,59.0,97,92,82,30.00,29.91,10,3,21,0.13
2013-5-24,64.9,61.1,55.3,64.0,60.2,54.0,97,96,92,29.90,29.72,9,2,18,0.69
2013-5-25,54.9,51.2,43.4,54.0,49.3,42.0,95,93,89,29.79,29.70,12,4,19,0.22
2013-5-26,58.7,51.1,43.5,45.0,41.7,39.0,92,71,54,30.13,29.77,15,6,22,0.23
2013-5-27,66.3,57.2,44.3,48.0,44.5,41.0,94,64,45,30.20,30.13,14,5,24,0.00
2013-5-28,69.2,58.5,41.2,56.0,50.5,39.0,96,76,52,30.27,30.20,5,1,10,0.03
2013-5-29,67.0,59.9,56.5,63.0,57.9,55.0,96,93,83,30.25,30.06,15,2,15,0.51
2013-5-30,82.2,69.2,59.1,70.0,62.9,58.0,96,81,61,30.13,30.05,11,3,18,0.67
2013-5-31,88.4,73.7,59.9,72.0,63.9,58.0,92,73,46,30.12,30.02,10,3,20,0.00
2013-6-1,79.9,69.6,60.2,69.0,63.2,58.0,94,81,63,30.05,29.97,15,3,18,0.00
2013-6-2,73.3,66.6,62.8,67.0,62.8,61.0,94,87,78,29.99,29.88,10,3,18,0.00
2013-6-3,67.8,64.2,61.9,67.0,63.0,61.0,97,95,93,29.91,29.83,10,2,18,0.88
2013-6-4,70.5,61.5,50.2,61.0,50.5,44.0,97,69,44,30.09,29.82,8,3,15,0.88
2013-6-5,69.7,59.0,46.0,55.0,49.2,45.0,97,73,43,30.21,30.09,6,1,9,0.00
2013-6-6,70.6,60.5,46.4,60.0,53.2,45.0,96,78,59,30.22,30.10,8,1,9,0.00
2013-6-7,64.7,59.4,56.3,64.0,57.5,52.0,97,93,82,30.11,29.78,8,1,15,1.38
2013-6-8,70.1,64.5,59.8,65.0,61.5,57.0,97,90,75,30.03,29.57,14,4,21,0.26
2013-6-9,74.9,66.8,55.6,62.0,58.5,54.0,97,76,57,30.19,30.03,10,3,16,0.26
2013-6-10,74.9,64.1,54.7,64.0,59.4,53.0,96,85,61,30.21,30.00,4,1,7,0.40
2013-6-11,72.9,65.8,59.3,68.0,63.7,58.0,97,93,82,29.99,29.58,13,3,20,0.42
2013-6-12,70.7,65.5,55.9,59.0,56.4,53.0,93,73,61,29.82,29.62,13,4,18,0.00
2013-6-13,67.0,58.7,48.8,60.0,54.1,47.0,97,85,72,29.84,29.59,6,1,12,0.12
2013-6-14,65.2,57.6,53.0,57.0,53.0,50.0,95,85,66,29.78,29.54,12,4,24,0.80
2013-6-15,75.8,67.4,59.4,59.0,53.9,48.0,91,64,38,29.99,29.78,10,3,14,0.80
2013-6-16,76.1,66.2,54.5,64.0,58.6,52.0,96,78,45,29.99,29.80,16,3,20,0.00
2013-6-17,79.2,69.3,62.5,68.0,63.4,60.0,92,82,66,29.95,29.82,9,2,17,0.00
2013-6-18,78.6,65.7,56.3,70.0,61.9,55.0,96,88,67,29.94,29.88,6,1,12,0.00
2013-6-19,72.9,64.0,53.6,60.0,54.6,51.0,95,74,50,30.18,29.85,10,3,15,0.04
2013-6-20,73.3,62.5,47.6,63.0,55.5,46.0,97,80,50,30.32,30.18,7,1,13,0.00
2013-6-21,73.8,65.1,52.6,58.0,53.2,49.0,95,68,45,30.32,30.27,14,1,14,0.00
2013-6-22,75.5,67.4,60.1,63.0,59.1,54.0,95,76,51,30.29,30.20,7,2,14,0.00
2013-6-23,79.2,70.8,61.8,70.0,66.1,60.0,95,85,68,30.22,30.11,7,2,19,0.00
2013-6-24,83.2,74.1,67.9,74.0,69.5,66.0,96,86,69,30.09,29.93,11,4,21,0.00
2013-6-25,85.7,74.8,64.7,73.0,67.4,63.0,94,78,59,29.96,29.79,11,3,16,0.00
2013-6-26,83.0,74.4,68.1,74.0,68.8,66.0,94,83,70,29.86,29.76,14,4,21,0.01
2013-6-27,73.3,69.2,65.0,70.0,66.9,63.0,96,92,86,29.86,29.78,3,1,9,0.01
2013-6-28,73.6,68.5,66.8,73.0,67.6,66.0,97,96,93,29.77,29.59,6,2,13,0.21
2013-6-29,73.1,68.9,66.7,72.0,67.7,66.0,98,95,89,29.79,29.58,5,1,12,0.30
2013-6-30,75.2,69.7,67.3,71.0,68.0,66.0,97,94,81,30.00,29.79,6,1,10,0.04
2013-7-1,76.3,70.6,67.4,72.0,69.0,67.0,97,94,87,30.15,30.00,6,2,12,0.11
2013-7-2,78.8,72.2,68.1,74.0,70.2,67.0,97,93,85,30.25,30.15,8,2,15,0.07
2013-7-3,79.3,74.7,70.7,75.0,71.9,70.0,96,91,83,30.27,30.22,14,4,17,0.07
2013-7-4,81.9,75.1,70.6,76.0,72.3,70.0,97,91,78,30.27,30.17,14,4,21,0.00
2013-7-5,84.8,76.6,70.1,77.0,72.0,68.0,94,86,74,30.21,30.11,16,5,20,0.00
2013-7-6,85.1,77.0,71.3,77.0,72.3,69.0,93,85,71,30.13,30.01,13,5,19,0.00
2013-7-7,87.3,78.9,70.5,77.0,73.0,69.0,96,83,63,30.05,29.95,10,2,14,0.00
2013-7-8,83.1,76.2,71.1,74.0,70.9,69.0,96,84,72,30.07,29.96,12,3,21,0.00
2013-7-9,82.2,74.4,70.3,75.0,70.9,69.0,96,89,73,30.11,30.05,6,1,10,0.00
2013-7-10,81.8,75.9,72.7,76.0,73.2,71.0,96,91,80,30.08,29.86,9,2,23,0.00
2013-7-11,75.7,73.7,71.5,73.0,72.2,71.0,97,94,90,29.92,29.84,7,2,16,0.74
2013-7-12,73.4,70.6,67.9,71.0,68.8,66.0,97,94,87,30.18,29.92,6,2,11,0.74
2013-7-13,81.6,72.4,68.0,77.0,70.6,67.0,97,94,82,30.33,30.18,3,0,8,0.34
2013-7-14,84.5,76.2,69.8,77.0,73.1,69.0,98,90,77,30.33,30.22,9,2,18,0.30
2013-7-15,88.9,79.3,71.5,77.0,74.0,70.0,97,85,64,30.23,30.12,7,1,9,0.30
2013-7-16,90.2,79.1,68.8,77.0,71.6,67.0,97,79,56,30.18,30.10,6,1,8,0.00
2013-7-17,87.2,76.3,64.6,75.0,69.6,64.0,97,81,61,30.20,30.08,5,1,9,0.00
2013-7-18,89.1,80.6,75.1,78.0,74.2,71.0,96,81,65,30.08,29.99,8,2,13,0.00
2013-7-19,87.7,81.1,75.3,80.0,76.3,74.0,96,85,74,29.99,29.81,18,3,25,0.00
2013-7-20,84.7,80.0,74.2,78.0,75.2,72.0,94,85,75,29.83,29.72,14,4,23,0.00
2013-7-21,81.6,73.7,65.1,72.0,69.1,64.0,95,86,67,30.01,29.82,9,1,9,0.28
2013-7-22,81.3,72.0,65.1,74.0,69.3,64.0,97,91,76,30.01,29.90,4,0,7,0.28
2013-7-23,82.7,76.2,70.5,78.0,73.8,69.0,97,92,83,29.89,29.60,9,2,21,0.00
2013-7-24,85.7,76.6,68.9,75.0,71.0,67.0,97,83,57,29.91,29.61,8,2,13,0.00
2013-7-25,72.7,66.1,62.7,66.0,61.3,59.0,94,85,73,30.05,29.91,11,4,18,0.10
2013-7-26,69.2,66.5,64.0,68.0,65.0,63.0,96,94,91,30.05,29.89,17,4,20,0.32
2013-7-27,80.5,71.8,65.1,72.0,68.1,63.0,96,88,73,30.10,30.03,11,2,14,0.32
2013-7-28,80.6,72.9,68.4,74.0,70.7,67.0,97,92,78,30.05,29.95,5,1,11,0.16
2013-7-29,81.3,73.4,67.3,76.0,70.7,66.0,97,91,81,30.07,30.01,4,1,8,0.16
2013-7-30,78.8,72.1,64.8,69.0,64.1,60.0,96,77,56,30.12,30.04,8,2,16,0.00
2013-7-31,79.2,69.5,60.1,66.0,62.3,59.0,97,80,53,30.15,30.09,8,1,11,0.00
2013-8-1,78.0,68.1,59.5,70.0,64.6,58.0,97,89,69,30.09,29.92,5,1,7,0.05
2013-8-2,78.6,70.5,63.3,71.0,66.6,62.0,97,88,68,29.93,29.82,11,2,19,0.09
2013-8-3,73.2,70.6,67.0,69.0,66.3,65.0,93,86,77,29.92,29.84,8,2,15,0.03
2013-8-4,77.3,68.7,57.5,66.0,61.1,56.0,97,78,57,29.89,29.80,8,2,17,0.04
2013-8-5,74.2,65.8,57.5,60.0,56.2,50.0,94,72,44,30.05,29.89,9,2,14,0.00
2013-8-6,77.2,64.4,50.3,62.0,54.3,49.0,97,74,43,30.19,30.06,3,1,7,0.00
2013-8-7,77.1,63.0,48.7,66.0,55.2,48.0,97,78,45,30.21,30.17,5,1,9,0.00
2013-8-8,78.9,69.6,55.4,72.0,66.1,54.0,97,89,70,30.17,30.09,11,1,15,0.10
2013-8-9,74.1,72.3,70.7,73.0,70.9,70.0,96,95,92,30.11,29.84,10,2,25,0.02
2013-8-10,79.8,73.9,65.9,72.0,66.8,60.0,96,79,59,30.03,29.83,10,4,19,0.02
2013-8-11,76.5,67.1,57.9,62.0,56.5,53.0,96,71,47,30.10,30.02,7,2,10,0.00
2013-8-12,75.4,66.5,56.0,71.0,64.1,55.0,97,92,83,30.08,29.96,4,0,7,0.11
2013-8-13,69.5,67.7,64.4,69.0,66.9,63.0,97,97,96,29.95,29.70,2,0,4,0.48
2013-8-14,73.3,67.1,61.6,66.0,59.0,55.0,98,77,55,29.98,29.70,11,3,16,0.49
2013-8-15,74.2,66.2,57.0,58.0,55.4,50.0,90,70,45,30.16,29.98,9,2,12,0.00
2013-8-16,77.3,67.2,57.7,66.0,60.3,56.0,97,80,50,30.23,30.14,4,1,10,0.00
2013-8-17,80.3,66.5,52.1,66.0,59.4,51.0,97,80,50,30.30,30.22,5,1,8,0.00
2013-8-18,79.3,64.7,54.6,69.0,59.9,53.0,98,86,54,30.30,30.11,3,0,6,0.11
2013-8-19,76.0,66.9,54.1,68.0,62.7,53.0,97,86,72,30.12,30.00,9,3,17,0.01
2013-8-20,82.3,73.0,65.6,70.0,65.8,63.0,95,79,57,30.12,30.01,8,2,10,0.01
2013-8-21,84.2,74.1,63.8,71.0,66.3,62.0,95,78,54,30.17,30.08,7,2,12,0.00
2013-8-22,78.2,73.0,69.7,72.0,70.0,68.0,96,90,82,30.08,29.88,8,2,18,0.00
2013-8-23,76.7,70.3,59.6,70.0,63.5,57.0,97,81,53,30.11,29.84,13,2,18,0.00
2013-8-24,74.3,63.9,47.4,61.0,54.0,46.0,96,73,44,30.36,30.11,9,2,16,0.00
2013-8-25,79.6,63.9,45.7,65.0,54.9,45.0,97,75,42,30.39,30.25,8,1,13,0.00
2013-8-26,74.4,69.8,66.6,67.0,64.7,59.0,91,84,75,30.25,29.94,16,4,22,0.00
2013-8-27,73.0,69.4,66.8,70.0,68.0,65.0,97,95,89,29.94,29.85,3,1,13,1.62
2013-8-28,79.4,71.0,66.7,73.0,68.0,65.0,97,90,77,29.96,29.87,4,1,6,1.62
2013-8-29,69.1,66.0,59.5,67.0,63.7,57.0,97,92,87,30.05,29.95,7,2,11,0.01
2013-8-30,73.5,65.5,56.0,68.0,62.6,55.0,97,90,81,30.04,29.89,13,2,16,0.01
2013-8-31,76.5,72.0,68.5,72.0,69.6,67.0,96,92,84,29.91,29.87,12,2,18,0.00
2013-9-1,79.6,73.7,70.4,75.0,71.2,69.0,96,92,83,29.92,29.86,9,2,16,0.00
2013-9-2,80.6,73.0,70.5,76.0,71.4,70.0,97,94,83,29.90,29.76,7,1,14,0.02
2013-9-3,80.7,71.1,66.1,74.0,69.5,65.0,98,95,80,29.84,29.73,4,1,10,0.03
2013-9-4,75.5,68.3,62.8,65.0,62.2,60.0,97,81,67,29.96,29.83,8,2,19,0.03
2013-9-5,72.1,65.4,50.9,67.0,61.4,50.0,96,87,77,30.13,29.91,7,2,15,0.02
2013-9-6,68.2,57.6,46.5,56.0,49.4,45.0,97,77,47,30.25,30.14,6,1,10,0.03
2013-9-7,71.9,61.0,44.8,60.0,53.2,44.0,97,77,52,30.14,29.92,9,2,18,0.01
2013-9-8,77.5,68.2,58.8,66.0,58.6,45.0,89,72,50,30.09,29.78,13,3,17,0.01
2013-9-9,68.5,57.8,47.1,54.0,48.6,44.0,96,74,49,30.26,30.10,6,1,9,0.00
2013-9-10,74.5,65.6,52.7,68.0,61.7,51.0,97,87,75,30.21,30.11,8,2,13,0.00
2013-9-11,81.9,75.0,70.0,75.0,71.0,68.0,94,87,77,30.14,30.04,8,2,14,0.00
2013-9-12,78.2,72.7,69.1,72.0,69.6,68.0,96,90,80,30.06,29.75,9,2,14,0.00
2013-9-13,75.7,70.1,64.1,70.0,67.2,60.0,97,90,77,29.75,29.60,9,2,13,0.32
2013-9-14,68.8,63.4,57.9,60.0,57.1,53.0,91,80,68,30.07,29.75,9,2,13,0.32
2013-9-15,66.3,58.3,49.9,56.0,51.9,49.0,97,81,60,30.19,30.08,7,1,12,0.00
2013-9-16,66.2,60.8,51.7,61.0,55.9,47.0,97,84,65,30.20,30.04,11,2,19,0.02
2013-9-17,58.8,52.2,38.7,47.0,42.6,37.0,95,71,54,30.40,30.20,13,3,18,0.02
2013-9-18,67.8,53.2,38.1,54.0,44.4,37.0,97,76,40,30.35,30.18,6,1,9,0.00
2013-9-19,70.4,62.5,53.0,60.0,56.4,51.0,95,81,62,30.19,30.09,9,3,14,0.01
2013-9-20,75.2,61.4,49.2,64.0,55.8,48.0,97,84,52,30.12,30.05,7,1,9,0.02
2013-9-21,76.4,63.6,47.3,67.0,60.1,46.0,98,89,72,30.08,29.80,6,1,12,0.01
2013-9-22,70.9,66.6,57.6,67.0,61.5,50.0,95,84,68,29.83,29.69,9,3,15,0.10
2013-9-23,63.7,54.9,45.8,52.0,46.2,43.0,95,73,54,30.02,29.82,15,3,16,0.10
2013-9-24,63.8,53.6,45.4,53.0,46.0,42.0,94,76,60,30.02,29.84,10,3,13,0.00
2013-9-25,66.4,54.0,39.3,53.0,47.4,38.0,97,80,58,29.99,29.90,8,1,11,0.00
2013-9-26,62.1,55.5,47.7,52.0,49.8,46.0,96,82,65,30.12,29.98,9,2,12,0.00
2013-9-27,63.1,57.7,46.5,56.0,52.8,45.0,96,84,73,30.27,30.11,9,2,16,0.00
2013-9-28,73.4,55.7,43.1,59.0,49.9,42.0,97,83,57,30.32,30.25,6,1,9,0.00
2013-9-29,67.2,55.0,40.7,58.0,50.1,40.0,97,85,56,30.27,30.11,4,1,8,0.01
2013-9-30,69.2,59.9,45.1,58.0,54.9,44.0,96,85,65,30.10,29.98,9,2,11,0.01
2013-10-1,73.5,57.1,43.2,58.0,51.5,42.0,97,83,55,29.97,29.88,6,1,11,0.00
2013-10-2,75.8,64.5,49.7,63.0,59.3,49.0,97,84,64,29.98,29.87,15,3,19,0.01
2013-10-3,78.7,64.7,53.3,60.0,55.8,51.0,96,75,41,30.10,29.99,5,1,10,0.01
2013-10-4,75.5,62.5,51.9,64.0,57.7,51.0,97,85,66,30.09,30.03,5,1,8,0.00
2013-10-5,68.8,61.3,53.8,63.0,58.7,53.0,97,91,77,30.14,30.06,4,0,6,0.10
2013-10-6,65.6,59.9,51.9,62.0,56.4,51.0,98,88,66,30.21,30.13,3,0,7,0.10
2013-10-7,74.5,68.4,64.1,71.0,66.5,62.0,96,93,85,30.14,29.90,9,2,16,0.17
2013-10-8,66.3,59.1,46.9,65.0,50.8,45.0,96,76,49,30.35,29.91,12,2,14,0.24
2013-10-9,62.7,56.1,46.7,51.0,47.6,45.0,95,74,62,30.43,30.34,9,2,16,0.00
2013-10-10,66.8,59.4,52.2,59.0,55.5,49.0,92,87,75,30.34,30.14,8,2,13,0.00
2013-10-11,68.5,61.6,56.0,61.0,57.9,52.0,94,87,76,30.14,30.08,8,3,13,0.00
2013-10-12,65.0,58.8,52.6,59.0,54.2,50.0,93,85,78,30.36,30.12,9,2,16,0.00
2013-10-13,61.7,54.2,41.9,51.0,47.5,40.0,95,79,63,30.43,30.33,7,1,12,0.00
2013-10-14,64.5,48.4,35.0,53.0,43.8,34.0,97,86,62,30.42,30.29,4,0,6,0.00
2013-10-15,67.3,50.9,38.4,58.0,44.3,37.0,97,81,44,30.29,30.18,6,0,8,0.00
2013-10-16,63.1,56.1,42.2,60.0,54.4,41.0,97,94,88,30.17,29.92,7,1,11,0.00
2013-10-17,65.8,61.6,57.4,61.0,59.3,56.0,96,92,85,29.93,29.77,7,2,12,0.00
2013-10-18,68.0,61.8,46.5,63.0,56.5,45.0,96,84,62,29.94,29.68,13,3,18,0.01
2013-10-19,63.8,55.2,41.8,55.0,47.9,40.0,96,77,56,30.02,29.80,8,1,12,0.01
2013-10-20,61.1,54.9,37.3,59.0,46.3,36.0,96,75,45,30.05,29.74,11,2,18,0.01
2013-10-21,63.4,48.8,34.1,51.0,41.7,33.0,97,79,51,30.15,30.05,10,2,15,0.00
2013-10-22,67.1,54.3,40.4,58.0,49.2,39.0,97,84,64,30.05,29.75,7,1,13,0.01
2013-10-23,53.7,47.8,38.0,45.0,40.7,35.0,95,77,59,29.82,29.59,5,1,11,0.23
2013-10-24,52.3,49.0,44.9,42.0,35.2,28.0,88,60,42,29.93,29.66,13,5,19,0.24
2013-10-25,52.5,47.4,43.2,38.0,33.5,30.0,73,59,49,30.20,29.93,9,4,19,0.00
2013-10-26,57.5,49.5,30.2,44.0,37.6,28.0,95,65,51,30.20,29.92,14,3,22,0.01
2013-10-27,56.8,53.2,48.2,45.0,38.1,33.0,79,57,49,30.10,29.85,13,4,22,0.01
2013-10-28,57.3,48.7,30.9,43.0,36.8,29.0,95,65,51,30.35,30.10,19,3,19,0.00
2013-10-29,52.7,44.4,33.4,40.0,35.5,32.0,94,72,49,30.42,30.35,7,2,12,0.00
2013-10-30,59.8,45.6,31.4,49.0,41.0,30.0,97,85,61,30.39,30.22,9,1,14,0.00
2013-10-31,63.9,55.5,41.3,61.0,52.4,40.0,97,90,76,30.27,29.92,8,2,12,0.00
2013-11-1,69.1,64.2,61.8,65.0,61.2,58.0,95,90,82,29.90,29.59,16,4,21,0.02
2013-11-2,63.0,57.6,52.3,60.0,54.8,51.0,96,90,71,29.73,29.62,6,1,11,0.08
2013-11-3,56.9,46.7,39.5,50.0,40.2,25.0,91,79,55,30.38,29.72,13,4,19,0.03
2013-11-4,44.6,39.6,35.7,32.0,29.2,26.0,84,67,51,30.71,30.38,10,3,19,0.03
2013-11-5,52.3,40.8,32.1,37.0,33.5,30.0,95,76,55,30.72,30.56,3,0,8,0.00
2013-11-6,59.5,49.0,35.1,54.0,45.5,34.0,97,88,71,30.55,30.12,7,1,10,0.00
2013-11-7,63.1,57.1,46.5,62.0,54.8,38.0,96,92,73,30.12,29.71,9,4,18,1.04
2013-11-8,49.2,44.5,39.8,38.0,30.5,25.0,71,59,49,30.14,29.84,15,6,24,1.04
2013-11-9,48.6,42.9,38.0,39.0,29.6,26.0,70,60,46,30.24,30.10,13,4,19,0.00
2013-11-10,57.7,52.3,47.1,47.0,41.9,36.0,84,68,59,30.09,29.76,13,4,27,0.11
2013-11-11,54.5,48.0,42.7,45.0,35.1,30.0,73,62,47,30.13,29.91,14,6,25,0.11
2013-11-12,55.3,39.6,30.8,47.0,32.4,21.0,93,77,57,30.20,29.93,14,4,22,0.12
2013-11-13,37.1,33.0,28.3,23.0,19.6,16.0,72,59,46,30.30,30.19,15,5,18,0.02
2013-11-14,51.6,46.2,36.5,38.0,33.1,23.0,77,61,46,30.24,30.10,17,6,24,0.02
2013-11-15,59.8,53.4,49.7,49.0,42.2,32.0,87,67,48,30.26,30.18,15,3,16,0.00
2013-11-16,60.5,48.6,33.9,46.0,39.8,32.0,95,74,46,30.35,30.24,8,2,11,0.00
2013-11-17,61.4,51.6,34.4,58.0,49.3,33.0,97,92,71,30.35,29.90,5,1,12,0.12
2013-11-18,63.0,58.8,53.3,61.0,53.4,41.0,98,83,60,29.89,29.62,10,4,22,0.40
2013-11-19,53.6,43.7,34.5,41.0,27.5,22.0,62,53,45,30.29,29.70,15,5,21,0.40
2013-11-20,41.2,33.2,26.2,24.0,20.4,18.0,81,60,43,30.62,30.30,12,4,18,0.00
2013-11-21,48.1,35.8,24.4,36.0,30.0,23.0,95,81,56,30.65,30.43,7,1,10,0.00
2013-11-22,54.3,48.8,36.7,53.0,46.8,34.0,96,92,89,30.42,29.86,9,2,16,0.14
2013-11-23,53.0,45.4,34.5,51.0,31.2,18.0,93,60,35,29.91,29.81,15,5,24,0.01
2013-11-24,34.3,27.3,24.3,17.0,8.4,0.0,56,45,30,30.23,29.83,22,9,33,0.01
2013-11-25,41.4,27.8,21.7,33.0,10.5,2.0,78,50,28,30.41,30.23,19,4,22,0.00
2013-11-26,49.1,44.0,41.5,48.0,36.7,30.0,95,76,59,30.36,30.05,13,3,18,0.08
2013-11-27,61.8,54.4,40.7,61.0,53.1,36.0,97,95,83,30.03,29.18,15,6,29,1.37
2013-11-28,40.7,34.6,29.0,36.0,21.4,12.0,83,60,44,30.47,29.53,17,7,26,1.38
2013-11-29,35.9,31.5,27.6,20.0,16.3,12.0,68,54,47,30.74,30.47,12,3,14,0.00
2013-11-30,39.6,30.7,23.2,31.0,21.7,12.0,88,70,51,30.78,30.49,6,1,10,0.00
2013-12-1,49.9,46.2,39.3,48.0,41.8,31.0,96,85,72,30.47,30.00,6,2,12,0.00
2013-12-2,45.7,40.7,37.1,45.0,39.4,35.0,97,95,91,30.00,29.91,5,1,8,0.00
2013-12-3,48.3,41.1,33.7,39.0,37.1,32.0,95,86,62,29.96,29.83,12,3,15,0.01
2013-12-4,45.1,37.2,28.4,36.0,31.9,27.0,94,82,63,30.23,29.97,10,2,12,0.01
2013-12-5,56.1,46.7,28.1,55.0,45.1,27.0,97,94,86,30.24,29.99,4,1,9,0.01
2013-12-6,59.7,52.0,38.3,59.0,50.8,37.0,97,95,92,30.13,29.93,15,3,17,0.26
2013-12-7,41.0,37.3,32.5,37.0,31.5,21.0,95,80,60,30.47,30.06,10,4,14,0.08
2013-12-8,34.2,32.4,29.6,26.0,21.8,17.0,77,65,56,30.61,30.47,10,2,14,0.08
2013-12-9,48.1,40.3,32.3,47.0,38.8,26.0,97,94,75,30.48,29.89,11,3,19,0.50
2013-12-10,39.3,35.5,29.6,37.0,32.4,23.0,95,88,76,30.05,29.81,8,2,13,0.05
2013-12-11,34.2,32.0,28.9,27.0,23.2,19.0,82,70,60,30.29,30.06,13,5,22,0.08
2013-12-12,32.8,26.1,19.7,20.0,12.1,4.0,72,56,39,30.29,30.13,16,4,20,0.08
2013-12-13,33.3,29.2,24.5,22.0,16.9,14.0,83,61,49,30.36,30.06,17,6,24,0.00
2013-12-14,33.1,25.1,18.9,32.0,19.1,7.0,95,79,58,30.59,30.12,11,4,13,0.00
2013-12-15,52.8,38.6,31.7,52.0,35.3,24.0,97,88,67,30.09,29.36,17,6,23,0.69
2013-12-16,35.6,30.7,25.8,26.0,16.3,9.0,73,56,43,30.24,29.80,15,6,22,0.69
2013-12-17,41.2,27.4,14.5,40.0,21.4,10.0,96,79,56,30.29,29.88,10,2,13,0.16
2013-12-18,35.7,31.6,23.3,29.0,24.9,22.0,94,77,59,30.14,29.80,12,6,23,0.01
2013-12-19,49.1,41.1,34.1,38.0,32.0,25.0,78,70,63,30.16,30.02,13,5,22,0.01
2013-12-20,55.9,44.8,29.6,50.0,40.3,28.0,97,85,65,30.17,30.01,17,2,21,0.01
2013-12-21,58.4,55.5,52.4,56.0,51.9,50.0,94,87,79,30.05,29.96,14,5,20,0.00
2013-12-22,61.1,58.9,55.4,59.0,56.4,52.0,95,91,79,30.03,29.90,13,5,23,0.00
2013-12-23,60.6,47.4,37.9,56.0,45.8,37.0,97,94,83,30.08,29.95,10,2,14,0.36
2013-12-24,40.1,35.6,30.7,39.0,29.3,21.0,96,78,61,30.23,30.02,12,4,16,0.01
2013-12-25,30.9,22.2,14.7,23.0,11.8,8.0,89,65,54,30.59,30.23,10,3,21,0.01
2013-12-26,42.2,34.0,16.1,38.0,30.1,14.0,95,86,76,30.54,30.09,18,3,20,0.19
2013-12-27,37.2,34.9,32.5,27.0,25.0,22.0,77,67,58,30.33,30.25,11,5,18,0.19
2013-12-28,50.7,42.4,32.0,40.0,34.3,25.0,87,74,57,30.29,30.06,13,3,25,0.00
2013-12-29,56.1,47.1,41.5,55.0,43.1,37.0,97,86,73,30.10,29.34,18,3,25,0.93
2013-12-30,45.4,38.0,26.4,41.0,30.3,17.0,94,75,48,30.16,29.50,12,5,17,0.93
2013-12-31,30.5,26.1,21.4,22.0,16.2,10.0,73,66,59,30.22,30.07,10,4,19,0.00
2014-1-1,30.9,27.2,24.1,19.0,13.1,8.0,79,56,44,30.42,30.23,14,4,21,0.00
2014-1-2,33.1,29.5,27.2,32.0,25.9,15.0,95,87,59,30.36,29.67,14,4,22,0.00